Location: Chervonnoye
(48.6000°N, 34.4000°E)
Time: 13:02:48
(UTC+00:00)

deb Kosmos-2237 - Pass Details

Date: 18 June 2021
Orbit: 850 x 1045 km, 71.0° (Epoch: 25 July)

Event Time Altitude Azimuth Distance (km) Brightness Sun altitude
Rises 20:05:18 0° 231° (SW) 3,561 ? -14.7°
Reaches altitude 10° 20:07:54 10° 239° (WSW) 2,652 ? -14.9°
Maximum altitude 20:13:43 42° 309° (NW) 1,361 ? -15.2°
Drops below altitude 10° 20:19:52 10° 20° (NNE) 2,792 ? -15.6°
Sets 20:22:41 0° 27° (NNE) 3,770 ? -15.7°
